Location: Gu�tanj
(46.5431°N, 14.9692°E)
Time: 06:28:31
(UTC+00:00)

Cosmos 2278 Rocket - Pass Details

Date: 03 March 2021
Orbit: 841 x 845 km, 71.0° (Epoch: 18 April)

Event Time Altitude Azimuth Distance (km) Brightness Sun altitude
Rises 18:40:22 0° 338° (NNW) 3,415 5.8 -19.8°
Reaches altitude 10° 18:43:06 10° 348° (NNW) 2,476 4.9 -20.3°
Maximum altitude 18:48:10 32° 51° (NE) 1,414 3.0 -21.2°
Enters shadow 18:48:31 32° 59° (ENE) 1,420 3.0 -21.2°
